[Date Prev][Date Next][Thread Prev][Thread Next] - [Date Index][Thread Index][Author Index]

MIR Keps 24-4-00 ~ Looks like MIR did a burn last nite ~



MIR
1 16609U 86017A   00115.35002615  .00063731  00000-0  34088-3 0  5636
2 16609  51.6470 173.2606 0003811 147.4462 293.3019 15.79718838810680

----
Via the sarex mailing list at AMSAT.ORG courtesy of AMSAT-NA.
To unsubscribe, send "unsubscribe sarex" to Majordomo@amsat.org



AMSAT Top AMSAT Home